[[{"header":{"parameterUnit":"m.s-1","parameterCategory":1,"la1":30.2991,"la2":30.254,"lo1":-89.0895,"lo2":-89.0444,"dy":0.0017,"dx":0.0017,"nx":28,"ny":28,"refTime":"2025-12-22T03:00:00:Z","depth":0,"parameterNumber":2,"parameterNumberName":"U-component_of_WINDS"},"data":[0,0,0,0,0,0,0,0,0,0,0,0,0,0,0,0,0,0,0,0,0,0,0,0,0,0,0,0,0,0,0,0,0,0,0,0,0,0,0,0,0,0,0,0,0,0,0,0,0,0,0,0,0,0,0,0,0,0,-1.4525,-1.4528,0,-1.4761,-1.4764,-1.4767,-1.4865,-1.4864,-1.4864,-1.4863,-1.5111,-1.5118,-1.5125,0,0,0,0,0,0,0,0,0,0,0,0,0,-1.4166,-1.4172,-1.4525,-1.4528,-1.4531,-1.4761,-1.4764,-1.4767,-1.4865,-1.4864,-1.4864,-1.4863,-1.5108,-1.5117,-1.5125,0,0,0,0,0,0,0,0,0,0,0,0,0,-1.4354,-1.4174,-1.4525,-1.4607,-1.4617,-1.476,-1.4764,-1.4768,-1.4865,-1.4864,-1.4863,-1.4863,-1.5106,-1.5116,-1.5126,-1.5207,0,0,-1.5159,-1.5163,0,0,0,0,0,0,0,0,-1.4343,-1.4367,-1.4592,-1.4602,-1.4613,-1.4783,-1.4728,-1.4915,-1.4865,-1.4771,-1.4863,-1.4862,-1.5003,-1.5022,-1.5068,-1.5218,-1.5229,-1.516,-1.5166,-1.5171,-1.5174,0,0,0,0,0,0,0,-1.433,-1.4358,-1.4619,-1.4595,-1.4608,-1.4635,-1.4661,-1.4764,-1.4888,-1.4779,-1.4787,-1.4813,-1.5008,-1.5057,-1.5074,-1.5232,-1.5159,-1.5169,-1.5175,-1.5179,-1.5463,-1.5464,0,0,0,0,0,0,-1.4303,-1.4346,-1.4611,-1.4626,-1.4473,-1.4642,-1.4671,-1.4729,-1.4887,-1.4911,-1.4813,-1.4817,-1.504,-1.5062,-1.5083,-1.5188,-1.5171,-1.518,-1.5187,-1.5461,-1.5463,-1.5464,0,0,0,0,0,0,-1.4294,-1.4325,-1.4602,-1.4488,-1.4525,-1.4649,-1.4714,-1.4734,-1.4783,-1.4913,-1.4937,-1.484,-1.504,-1.5068,-1.5175,-1.5198,-1.5185,-1.5195,-1.546,-1.5462,-1.5463,-1.5398,0,0,0,0,0,0,-1.4284,-1.4322,-1.4352,-1.4488,-1.4531,-1.4687,-1.4715,-1.4739,-1.48,-1.4807,-1.4945,-1.4967,-1.5041,-1.5159,-1.5186,-1.5212,-1.5203,-1.5458,-1.5461,-1.5463,-1.5398,-1.5397,-1.5396,0,0,0,0,0,-1.4271,-1.4325,-1.4353,-1.4384,-1.4571,-1.4688,-1.4713,-1.4796,-1.4802,-1.4834,-1.4918,-1.4962,-1.5191,-1.5169,-1.52,-1.523,-1.5457,-1.546,-1.5463,-1.5399,-1.5397,-1.5396,0,0,0,0,0,0,-1.419,-1.4344,-1.4377,-1.4476,-1.4568,-1.4705,-1.4748,-1.4792,-1.4886,-1.4888,-1.4989,-1.502,-1.5118,-1.5185,-1.5158,-1.5317,-1.5328,-1.5337,-1.5269,-1.5269,-1.5267,-1.5249,-1.5212,0,0,0,0,0,-1.4184,-1.4264,-1.4396,-1.4471,-1.4515,-1.4623,-1.4678,-1.4734,-1.4834,-1.4874,-1.4966,-1.5063,-1.5157,-1.5217,-1.531,-1.5409,-1.5441,-1.5446,-1.5444,-1.5442,-1.5449,-1.5507,-1.5511,-1.5473,-1.5473,-1.5473,0,0,-1.4172,-1.4266,-1.4311,-1.4457,-1.4535,-1.4618,-1.4655,-1.4742,-1.4805,-1.4888,-1.4993,-1.5064,-1.518,-1.5282,-1.5333,-1.5342,-1.5467,-1.5446,-1.5443,-1.5451,-1.551,-1.5514,-1.5517,-1.5475,-1.5474,-1.5474,0,0,-1.4192,-1.4271,-1.4343,-1.442,-1.4536,-1.4608,-1.4625,-1.4755,-1.4805,-1.4912,-1.4976,-1.5054,-1.5214,-1.5294,-1.5355,-1.5407,-1.5452,-1.5435,-1.5428,-1.5484,-1.5486,-1.549,-1.5509,-1.5514,-1.5441,-1.5441,-1.5441,0,-1.4163,-1.4288,-1.4374,-1.4457,-1.452,-1.4597,-1.4672,-1.4743,-1.4885,-1.4928,-1.4936,-1.5138,-1.5221,-1.5344,-1.5357,-1.5404,-1.5428,-1.5419,-1.5479,-1.5483,-1.5487,-1.5506,-1.5513,-1.5438,-1.5438,-1.5439,-1.5439,0,-1.4247,-1.4334,-1.4378,-1.4511,-1.4579,-1.4657,-1.4757,-1.4817,-1.4867,-1.4938,-1.5048,-1.5151,-1.5267,-1.53,-1.5351,-1.5431,-1.5433,-1.5459,-1.5472,-1.5486,-1.5506,-1.5514,-1.5434,-1.5435,-1.5436,-1.5437,0,0,-1.4223,-1.4402,-1.4417,-1.4478,-1.4613,-1.4683,-1.4766,-1.4877,-1.4927,-1.5023,-1.5096,-1.5229,-1.5254,-1.5323,-1.5384,-1.5433,-1.5468,-1.5453,-1.5457,-1.5452,-1.5564,-1.5543,-1.555,-1.5499,-1.5501,-1.5502,-1.5554,0,-1.4261,-1.441,-1.449,-1.4606,-1.4687,-1.4762,-1.4835,-1.4926,-1.4996,-1.5077,-1.5156,-1.5248,-1.5273,-1.5316,-1.5368,-1.5452,-1.5492,-1.545,-1.5569,-1.5572,-1.5537,-1.5561,-1.5539,-1.5583,-1.5562,-1.5564,-1.5565,0,-1.4326,-1.4418,-1.4541,-1.4667,-1.4704,-1.4767,-1.4877,-1.4953,-1.506,-1.5107,-1.5185,-1.5245,-1.5338,-1.5344,-1.5474,-1.5443,-1.5497,-1.5547,-1.5551,-1.5565,-1.5569,-1.5575,-1.5599,-1.5605,-1.5578,-1.5577,-1.5576,0,-1.4295,-1.4451,-1.4545,-1.4595,-1.4745,-1.4787,-1.4852,-1.4958,-1.502,-1.5117,-1.5158,-1.5265,-1.5324,-1.5406,-1.5494,-1.5491,-1.5616,-1.563,-1.5659,-1.5657,-1.5682,-1.5679,-1.5714,-1.5717,-1.5716,-1.5716,-1.5716,0,-1.433,-1.4402,-1.4533,-1.4591,-1.4675,-1.4768,-1.4849,-1.492,-1.5014,-1.5088,-1.5161,-1.523,-1.5343,-1.5426,-1.5497,-1.5594,-1.562,-1.5662,-1.568,-1.5655,-1.565,-1.5692,-1.5691,-1.5718,-1.5718,-1.5717,-1.5717,0,-1.4309,-1.44,-1.4507,-1.4639,-1.4674,-1.473,-1.4845,-1.4905,-1.4979,-1.5072,-1.51,-1.5216,-1.5318,-1.5414,-1.5552,-1.5599,-1.5697,-1.572,-1.566,-1.5669,-1.5694,-1.569,-1.5757,-1.5771,-1.5763,-1.5763,-1.5763,0,-1.4325,-1.4382,-1.452,-1.4574,-1.4636,-1.4723,-1.4786,-1.4881,-1.4944,-1.507,-1.5116,-1.5223,-1.5314,-1.5474,-1.5572,-1.5678,-1.5705,-1.5721,-1.5721,-1.5695,-1.5705,-1.57,-1.5707,-1.5719,-1.5718,-1.5718,-1.5718,0,-1.4343,-1.4385,-1.4472,-1.4576,-1.4649,-1.4735,-1.4825,-1.4866,-1.4978,-1.5046,-1.515,-1.522,-1.536,-1.5466,-1.5583,-1.5653,-1.5705,-1.5717,-1.573,-1.5705,-1.5667,-1.5688,-1.5655,-1.5715,-1.5715,-1.5715,-1.5716,-1.5716,-1.4342,-1.4396,-1.4501,-1.4597,-1.4673,-1.4755,-1.4818,-1.4899,-1.4986,-1.5105,-1.5157,-1.5263,-1.537,-1.5533,-1.5602,-1.5688,-1.5699,-1.5717,-1.5722,-1.5725,-1.572,-1.5653,-1.5709,-1.571,-1.571,-1.571,-1.571,0,-1.4364,-1.4435,-1.4522,-1.4643,-1.4718,-1.4758,-1.486,-1.4921,-1.5012,-1.5107,-1.5194,-1.5315,-1.5418,-1.5524,-1.5634,-1.5683,-1.571,-1.5709,-1.5706,-1.5721,-1.5703,-1.5681,-1.5685,-1.5685,-1.5685,-1.5685,-1.5685,-1.5685,-1.4384,-1.4478,-1.4532,-1.4666,-1.4738,-1.484,-1.4895,-1.4971,-1.5047,-1.5178,-1.5263,-1.5331,-1.5431,-1.5549,-1.5647,-1.5676,-1.5713,-1.5705,-1.5741,-1.5721,-1.5723,-1.5724,-1.5704,-1.5713,-1.5713,-1.5753,-1.5753,-1.5753]},{"header":{"parameterUnit":"m.s-1","parameterCategory":1,"la1":30.2991,"la2":30.254,"lo1":-89.0895,"lo2":-89.0444,"dy":0.0017,"dx":0.0017,"nx":28,"ny":28,"refTime":"2025-12-22T03:00:00:Z","depth":0,"parameterNumber":3,"parameterNumberName":"V-component_of_WINDS"},"data":[0,0,0,0,0,0,0,0,0,0,0,0,0,0,0,0,0,0,0,0,0,0,0,0,0,0,0,0,0,0,0,0,0,0,0,0,0,0,0,0,0,0,0,0,0,0,0,0,0,0,0,0,0,0,0,0,0,0,2.6369,2.6369,0,2.6399,2.64,2.64,2.6401,2.6401,2.64,2.64,2.6428,2.6429,2.643,0,0,0,0,0,0,0,0,0,0,0,0,0,2.6309,2.631,2.6369,2.6369,2.637,2.6399,2.64,2.64,2.6401,2.6401,2.64,2.64,2.6427,2.6428,2.643,0,0,0,0,0,0,0,0,0,0,0,0,0,2.6336,2.631,2.6369,2.6374,2.6375,2.6399,2.64,2.64,2.6401,2.6401,2.64,2.64,2.6427,2.6428,2.643,2.645,0,0,2.6435,2.6435,0,0,0,0,0,0,0,0,2.6335,2.6339,2.6373,2.6374,2.6374,2.6396,2.6389,2.6417,2.6401,2.6391,2.64,2.6399,2.6417,2.642,2.6426,2.6452,2.6453,2.6435,2.6436,2.6437,2.6437,0,0,0,0,0,0,0,2.6333,2.6337,2.6381,2.6373,2.6374,2.6374,2.6377,2.6394,2.6407,2.6392,2.6392,2.6396,2.6418,2.6425,2.6427,2.6453,2.6435,2.6436,2.6437,2.6438,2.6497,2.6498,0,0,0,0,0,0,2.633,2.6336,2.638,2.6382,2.6353,2.6375,2.6379,2.639,2.6406,2.6409,2.6396,2.6396,2.6422,2.6425,2.6428,2.6453,2.6437,2.6438,2.6439,2.6496,2.6497,2.6498,0,0,0,0,0,0,2.6329,2.6334,2.6379,2.6359,2.6364,2.6377,2.6389,2.639,2.6398,2.641,2.6412,2.6402,2.6422,2.6426,2.6445,2.6454,2.6439,2.644,2.6496,2.6497,2.6497,2.6503,0,0,0,0,0,0,2.6327,2.6334,2.6342,2.6359,2.6365,2.6396,2.6389,2.6391,2.6401,2.64,2.6415,2.6417,2.6422,2.6443,2.6447,2.6456,2.6441,2.6495,2.6496,2.6497,2.6502,2.6504,2.6506,0,0,0,0,0,2.6325,2.6342,2.6343,2.6348,2.6376,2.6397,2.64,2.6406,2.6402,2.641,2.6418,2.6417,2.6453,2.6445,2.6449,2.6459,2.6494,2.6496,2.6497,2.6501,2.6504,2.6506,0,0,0,0,0,0,2.6324,2.6344,2.6345,2.6368,2.6381,2.6397,2.6407,2.6409,2.6422,2.6421,2.6427,2.643,2.6449,2.6456,2.6447,2.648,2.6473,2.6475,2.6474,2.6477,2.6479,2.6476,2.6443,0,0,0,0,0,2.6327,2.6343,2.6359,2.6377,2.6384,2.6394,2.6403,2.6407,2.642,2.6425,2.6434,2.6446,2.646,2.6469,2.6482,2.6504,2.6506,2.6512,2.6514,2.6516,2.6517,2.6529,2.6531,2.6502,2.6502,2.6502,0,0,2.6331,2.6345,2.6354,2.6377,2.6387,2.6403,2.6399,2.6415,2.6426,2.6427,2.6446,2.6454,2.6467,2.6488,2.6497,2.6494,2.6526,2.6517,2.6519,2.6519,2.653,2.6533,2.6536,2.6503,2.6503,2.6503,0,0,2.6348,2.636,2.6377,2.6388,2.6404,2.6412,2.6416,2.6432,2.6438,2.6457,2.6459,2.6472,2.6495,2.6505,2.6513,2.6535,2.6535,2.6539,2.6548,2.6559,2.6562,2.6564,2.6571,2.6574,2.6541,2.6541,2.6541,0,2.6352,2.6376,2.6385,2.6402,2.6412,2.6415,2.6432,2.6442,2.6461,2.6467,2.6464,2.6495,2.6504,2.6527,2.6532,2.6539,2.6543,2.6537,2.6561,2.6563,2.6565,2.6572,2.6575,2.6542,2.6542,2.6542,2.6542,0,2.638,2.6397,2.6408,2.6429,2.644,2.6456,2.6467,2.6477,2.648,2.6488,2.6508,2.6519,2.6536,2.6541,2.6544,2.6565,2.6562,2.656,2.6553,2.6568,2.6575,2.6578,2.6542,2.6542,2.6542,2.6542,0,0,2.6395,2.6421,2.6425,2.6435,2.6454,2.6467,2.6483,2.6501,2.6509,2.6523,2.6536,2.6557,2.6556,2.6565,2.6569,2.6579,2.6595,2.6575,2.6576,2.6578,2.6618,2.6619,2.6622,2.6596,2.6596,2.6597,2.6616,0,2.6413,2.6444,2.6453,2.6479,2.6494,2.6499,2.6513,2.6526,2.6534,2.6547,2.6555,2.657,2.6567,2.6573,2.6583,2.6591,2.6603,2.659,2.6607,2.6607,2.6602,2.6625,2.6626,2.6644,2.6619,2.662,2.662,0,2.6438,2.6454,2.6482,2.65,2.6507,2.652,2.6537,2.655,2.6565,2.6569,2.6581,2.6584,2.6601,2.6594,2.6616,2.6607,2.6615,2.662,2.6621,2.6622,2.6614,2.6626,2.665,2.6653,2.6624,2.6624,2.6624,0,2.6446,2.6474,2.6495,2.6503,2.6525,2.6534,2.6543,2.6557,2.6567,2.6582,2.6588,2.6604,2.6612,2.6624,2.6631,2.6626,2.6653,2.6647,2.6656,2.6656,2.6661,2.666,2.6686,2.6667,2.6667,2.6667,2.6667,0,2.6465,2.6481,2.6499,2.6511,2.653,2.654,2.6557,2.6567,2.658,2.6593,2.6598,2.661,2.662,2.6633,2.6639,2.6656,2.666,2.6664,2.6665,2.6663,2.6662,2.6667,2.6665,2.6668,2.6668,2.6668,2.6668,0,2.6476,2.6488,2.6511,2.653,2.6536,2.6548,2.6565,2.6576,2.6585,2.6602,2.6606,2.6619,2.6636,2.6645,2.6664,2.6668,2.6688,2.6688,2.6683,2.6683,2.6692,2.6691,2.6721,2.6725,2.6705,2.6705,2.6705,0,2.6487,2.65,2.6522,2.6532,2.6542,2.6558,2.6569,2.6579,2.659,2.6609,2.6618,2.6635,2.6649,2.6674,2.6684,2.6699,2.67,2.671,2.6702,2.67,2.6699,2.6698,2.6699,2.671,2.6711,2.6711,2.6711,0,2.6505,2.651,2.6527,2.6546,2.6559,2.6574,2.6588,2.6596,2.6609,2.662,2.6638,2.6649,2.667,2.6686,2.6702,2.6711,2.6712,2.6714,2.6716,2.6714,2.671,2.6711,2.6685,2.6712,2.6712,2.6712,2.6712,2.6712,2.6515,2.6527,2.6545,2.6563,2.6576,2.6589,2.6602,2.6613,2.6628,2.6647,2.6652,2.667,2.6685,2.6707,2.6716,2.6729,2.6727,2.6732,2.6733,2.6733,2.6733,2.6709,2.6732,2.6732,2.6732,2.6732,2.6732,0,2.6533,2.6545,2.6562,2.6583,2.6597,2.66,2.6616,2.6627,2.6644,2.6658,2.6672,2.6692,2.6708,2.6721,2.6737,2.6745,2.6747,2.6749,2.6748,2.675,2.6734,2.673,2.6748,2.6748,2.6748,2.6748,2.6748,2.6748,2.6544,2.6565,2.6573,2.6599,2.6611,2.663,2.6639,2.6652,2.6663,2.6686,2.67,2.6709,2.6722,2.6739,2.6754,2.6757,2.6762,2.6764,2.6767,2.6752,2.6751,2.6749,2.6745,2.6766,2.6766,2.6781,2.6782,2.6782]}]]